Overview Statistics Trail Chart Weather Telemetry Raw packets
 

This is the latest recevied weather packets stored in our database for station/object KC1BRV. If no packets are shown the sender has not sent any weather packets the latest 10 day(s).

<< 51 52 53 54 55 56 57 >>
Time Temp. Humidity Pressure Rain* Wind** Luminosity Snow
1788261934 19.44° C 94% 1018.5 hPa 0 mm - 18 W/m² -
1788261629 19.44° C 94% 1018.6 hPa 0 mm - 19 W/m² -
1788261327 18.89° C 94% 1018.5 hPa 0 mm - 30 W/m² -
1788261026 18.89° C 94% 1018.6 hPa 0 mm - 39 W/m² -
1788260722 18.89° C 94% 1018.5 hPa 0 mm - 31 W/m² -
1788260417 18.89° C 95% 1018.6 hPa 0 mm - 19 W/m² -
1788260113 18.89° C 94% 1018.4 hPa 0 mm - 15 W/m² -
1788259807 18.89° C 94% 1018.5 hPa 0 mm - 13 W/m² -
1788259503 18.89° C 94% 1018.4 hPa 0 mm - 10 W/m² -
1788259198 18.89° C 94% 1018.3 hPa 0 mm - 7 W/m² -
1788258892 18.89° C 94% 1017.9 hPa 0 mm - 5 W/m² -
1788258588 18.89° C 94% 1018 hPa 0 mm - 3 W/m² -
1788258282 18.89° C 94% 1018 hPa 0 mm - 2 W/m² -
1788257977 18.89° C 94% 1018 hPa 0 mm - 1 W/m² -
1788257672 18.89° C 94% 1018 hPa 0 mm - 1 W/m² -
1788257372 18.89° C 94% 1018.1 hPa 0 mm - 1 W/m² -
1788257066 18.89° C 94% 1018 hPa 0 mm - 0 W/m² -
1788256766 18.89° C 94% 1018 hPa 0 mm - 0 W/m² -
1788256465 18.89° C 94% 1018.3 hPa 0 mm - 0 W/m² -
1788256158 18.89° C 94% 1018 hPa 0 mm - 0 W/m² -
1788255858 18.89° C 94% 1018.1 hPa 0 mm - 0 W/m² -
1788255558 18.89° C 94% 1018 hPa 0 mm - 0 W/m² -
1788255257 18.89° C 94% 1018.1 hPa 0 mm - 0 W/m² -
1788254953 18.89° C 94% 1018.1 hPa 0 mm - 0 W/m² -
1788254649 18.89° C 94% 1017.9 hPa 0 mm - 0 W/m² -

* Rain latest hour (hover to see other rain measurements)
** Current wind speed in m/s (hover to see current wind gust speed)